Time,TemperatureF,DewpointF,PressureIn,WindDirection,WindDirectionDegrees,WindSpeedMPH,WindSpeedGustMPH,Humidity,HourlyPrecipIn,Conditions,Clouds,dailyrainin,SoftwareType,DateUTC
2013-07-19 00:01:00,65.0,39.0,-100.00,NE,38,3.0,5.0,38,0.00,,,-99.99,,2013-07-19 06:01:00,
2013-07-19 00:11:00,65.0,39.0,-100.00,NE,38,3.0,5.0,38,0.00,,,-99.99,,2013-07-19 06:11:00,
2013-07-19 00:43:00,60.0,41.0,-100.00,WSW,256,4.0,6.0,50,0.00,,,-99.99,,2013-07-19 06:43:00,
2013-07-19 00:52:00,60.0,41.0,-100.00,WSW,256,4.0,6.0,50,0.00,,,-99.99,,2013-07-19 06:52:00,
2013-07-19 01:01:00,60.0,41.0,-100.00,WSW,256,4.0,6.0,50,0.00,,,-99.99,,2013-07-19 07:01:00,
2013-07-19 01:12:00,60.0,41.0,-100.00,WSW,256,4.0,6.0,50,0.00,,,-99.99,,2013-07-19 07:12:00,
2013-07-19 02:43:00,50.0,44.0,-100.00,SW,221,4.0,5.0,80,0.00,,,-99.99,,2013-07-19 08:43:00,
2013-07-19 02:52:00,50.0,44.0,-100.00,SW,221,4.0,5.0,80,0.00,,,-99.99,,2013-07-19 08:52:00,
2013-07-19 03:02:00,50.0,44.0,-100.00,SW,221,4.0,5.0,80,0.00,,,-99.99,,2013-07-19 09:02:00,
2013-07-19 03:11:00,50.0,44.0,-100.00,SW,221,4.0,5.0,80,0.00,,,-99.99,,2013-07-19 09:11:00,
2013-07-19 03:43:00,49.0,45.0,-100.00,SW,228,3.0,4.0,86,0.00,,,0.00,,2013-07-19 09:43:00,
2013-07-19 03:52:00,49.0,45.0,-100.00,SW,228,3.0,4.0,86,0.00,,,0.00,,2013-07-19 09:52:00,
2013-07-19 04:01:00,49.0,45.0,-100.00,SW,228,3.0,4.0,86,0.00,,,0.00,,2013-07-19 10:01:00,
2013-07-19 04:11:00,49.0,45.0,-100.00,SW,228,3.0,4.0,86,0.00,,,0.00,,2013-07-19 10:11:00,
2013-07-19 04:43:00,50.0,42.0,-100.00,SSW,211,1.0,3.0,73,0.00,,,0.00,,2013-07-19 10:43:00,
2013-07-19 04:52:00,50.0,42.0,-100.00,SSW,211,1.0,3.0,73,0.00,,,0.00,,2013-07-19 10:52:00,
2013-07-19 05:02:00,50.0,42.0,-100.00,SSW,211,1.0,3.0,73,0.00,,,0.00,,2013-07-19 11:02:00,
2013-07-19 05:12:00,50.0,42.0,-100.00,SSW,211,1.0,3.0,73,0.00,,,0.00,,2013-07-19 11:12:00,
2013-07-19 05:43:00,47.0,41.0,-100.00,WSW,254,3.0,5.0,79,0.00,,,0.00,,2013-07-19 11:43:00,
2013-07-19 05:52:00,47.0,41.0,-100.00,WSW,254,3.0,5.0,79,0.00,,,0.00,,2013-07-19 11:52:00,
2013-07-19 06:01:00,47.0,41.0,-100.00,WSW,254,3.0,5.0,79,0.00,,,0.00,,2013-07-19 12:01:00,
2013-07-19 06:12:00,47.0,41.0,-100.00,WSW,254,3.0,5.0,79,0.00,,,0.00,,2013-07-19 12:12:00,
2013-07-19 06:43:00,45.0,41.0,-100.00,WSW,254,1.0,2.0,88,0.00,,,0.00,,2013-07-19 12:43:00,
2013-07-19 06:52:00,45.0,41.0,-100.00,WSW,254,1.0,2.0,88,0.00,,,0.00,,2013-07-19 12:52:00,
2013-07-19 07:02:00,45.0,41.0,-100.00,WSW,254,1.0,2.0,88,0.00,,,0.00,,2013-07-19 13:02:00,
2013-07-19 07:11:00,45.0,41.0,-100.00,WSW,254,1.0,2.0,88,0.00,,,0.00,,2013-07-19 13:11:00,
2013-07-19 07:43:00,49.0,44.0,-100.00,NNW,337,1.0,3.0,81,0.00,,,0.00,,2013-07-19 13:43:00,
2013-07-19 07:53:00,49.0,44.0,-100.00,NNW,337,1.0,3.0,81,0.00,,,0.00,,2013-07-19 13:53:00,
2013-07-19 08:02:00,49.0,44.0,-100.00,NNW,337,1.0,3.0,81,0.00,,,0.00,,2013-07-19 14:02:00,
2013-07-19 08:11:00,49.0,44.0,-100.00,NNW,337,1.0,3.0,81,0.00,,,0.00,,2013-07-19 14:11:00,
2013-07-19 08:43:00,57.0,45.0,-100.00,East,99,2.0,4.0,64,-99.99,,,-99.99,,2013-07-19 14:43:00,
2013-07-19 08:53:00,57.0,45.0,-100.00,East,99,2.0,4.0,64,-99.99,,,-99.99,,2013-07-19 14:53:00,
2013-07-19 09:02:00,57.0,45.0,-100.00,East,99,2.0,4.0,64,-99.99,,,-99.99,,2013-07-19 15:02:00,
2013-07-19 09:11:00,57.0,45.0,-100.00,East,99,2.0,4.0,64,-99.99,,,-99.99,,2013-07-19 15:11:00,
2013-07-19 09:43:00,62.0,41.0,-100.00,NE,45,4.0,7.0,45,0.01,,,0.00,,2013-07-19 15:43:00,
2013-07-19 09:52:00,62.0,41.0,-100.00,NE,45,4.0,7.0,45,0.01,,,0.00,,2013-07-19 15:52:00,
2013-07-19 10:01:00,62.0,41.0,-100.00,NE,45,4.0,7.0,45,0.01,,,0.00,,2013-07-19 16:01:00,
2013-07-19 10:11:00,62.0,41.0,-100.00,NE,45,4.0,7.0,45,0.01,,,0.00,,2013-07-19 16:11:00,
2013-07-19 10:43:00,68.0,42.0,-100.00,NNE,31,5.0,9.0,38,-99.99,,,0.00,,2013-07-19 16:43:00,
2013-07-19 10:52:00,68.0,42.0,-100.00,NNE,31,5.0,9.0,38,-99.99,,,0.00,,2013-07-19 16:52:00,
2013-07-19 11:02:00,68.0,42.0,-100.00,NNE,31,5.0,9.0,38,-99.99,,,0.00,,2013-07-19 17:02:00,
2013-07-19 11:11:00,68.0,42.0,-100.00,NNE,31,5.0,9.0,38,-99.99,,,0.00,,2013-07-19 17:11:00,
2013-07-19 11:43:00,74.0,40.0,-100.00,NNE,20,6.0,10.0,29,0.00,,,-99.99,,2013-07-19 17:43:00,
2013-07-19 11:52:00,74.0,40.0,-100.00,NNE,20,6.0,10.0,29,0.00,,,-99.99,,2013-07-19 17:52:00,
2013-07-19 12:01:00,74.0,40.0,-100.00,NNE,20,6.0,10.0,29,0.00,,,-99.99,,2013-07-19 18:01:00,
2013-07-19 12:11:00,74.0,40.0,-100.00,NNE,20,6.0,10.0,29,0.00,,,-99.99,,2013-07-19 18:11:00,
2013-07-19 12:42:00,78.0,37.0,-100.00,NE,35,7.0,14.0,23,0.00,,,0.00,,2013-07-19 18:42:00,
2013-07-19 12:52:00,78.0,37.0,-100.00,NE,35,7.0,14.0,23,0.00,,,0.00,,2013-07-19 18:52:00,
2013-07-19 13:01:00,78.0,37.0,-100.00,NE,35,7.0,14.0,23,0.00,,,0.00,,2013-07-19 19:01:00,
2013-07-19 13:11:00,78.0,37.0,-100.00,NE,35,7.0,14.0,23,0.00,,,0.00,,2013-07-19 19:11:00,
2013-07-19 13:43:00,81.0,33.0,-100.00,NE,39,9.0,15.0,18,0.00,,,0.00,,2013-07-19 19:43:00,
2013-07-19 13:52:00,81.0,33.0,-100.00,NE,39,9.0,15.0,18,0.00,,,0.00,,2013-07-19 19:52:00,
2013-07-19 14:01:00,81.0,33.0,-100.00,NE,39,9.0,15.0,18,0.00,,,0.00,,2013-07-19 20:01:00,
2013-07-19 14:11:00,81.0,33.0,-100.00,NE,39,9.0,15.0,18,0.00,,,0.00,,2013-07-19 20:11:00,
2013-07-19 14:43:00,83.0,34.0,-100.00,NE,44,8.0,18.0,17,0.00,,,-99.99,,2013-07-19 20:43:00,
2013-07-19 14:52:00,83.0,34.0,-100.00,NE,44,8.0,18.0,17,0.00,,,-99.99,,2013-07-19 20:52:00,
2013-07-19 15:01:00,83.0,34.0,-100.00,NE,44,8.0,18.0,17,0.00,,,-99.99,,2013-07-19 21:01:00,
2013-07-19 15:11:00,83.0,34.0,-100.00,NE,44,8.0,18.0,17,0.00,,,-99.99,,2013-07-19 21:11:00,
2013-07-19 15:42:00,85.0,35.0,-100.00,NE,36,9.0,18.0,17,0.00,,,0.00,,2013-07-19 21:42:00,
2013-07-19 15:52:00,85.0,35.0,-100.00,NE,36,9.0,18.0,17,0.00,,,0.00,,2013-07-19 21:52:00,
2013-07-19 16:01:00,85.0,35.0,-100.00,NE,36,9.0,18.0,17,0.00,,,0.00,,2013-07-19 22:01:00,
2013-07-19 16:11:00,85.0,35.0,-100.00,NE,36,9.0,18.0,17,0.00,,,0.00,,2013-07-19 22:11:00,
2013-07-19 16:42:00,86.0,33.0,-100.00,NNE,16,12.0,22.0,15,0.00,,,0.00,,2013-07-19 22:42:00,
2013-07-19 16:52:00,86.0,33.0,-100.00,NNE,16,12.0,22.0,15,0.00,,,0.00,,2013-07-19 22:52:00,
2013-07-19 17:01:00,86.0,33.0,-100.00,NNE,16,12.0,22.0,15,0.00,,,0.00,,2013-07-19 23:01:00,
2013-07-19 17:11:00,86.0,33.0,-100.00,NNE,16,12.0,22.0,15,0.00,,,0.00,,2013-07-19 23:11:00,
2013-07-19 17:43:00,87.0,28.0,-100.00,WNW,285,8.0,19.0,12,0.00,,,0.00,,2013-07-19 23:43:00,
2013-07-19 17:52:00,87.0,28.0,-100.00,WNW,285,8.0,19.0,12,0.00,,,0.00,,2013-07-19 23:52:00,
2013-07-19 18:01:00,87.0,28.0,-100.00,WNW,285,8.0,19.0,12,0.00,,,0.00,,2013-07-20 00:01:00,
2013-07-19 18:11:00,87.0,28.0,-100.00,WNW,285,8.0,19.0,12,0.00,,,0.00,,2013-07-20 00:11:00,
2013-07-19 18:52:00,85.0,30.0,-100.00,North,359,15.0,24.0,14,0.00,,,0.00,,2013-07-20 00:52:00,
2013-07-19 19:01:00,85.0,30.0,-100.00,North,359,15.0,24.0,14,0.00,,,0.00,,2013-07-20 01:01:00,
2013-07-19 19:11:00,85.0,30.0,-100.00,North,359,15.0,24.0,14,0.00,,,0.00,,2013-07-20 01:11:00,
2013-07-19 19:52:00,84.0,30.0,-100.00,North,354,13.0,19.0,14,0.00,,,0.00,,2013-07-20 01:52:00,
2013-07-19 20:01:00,84.0,30.0,-100.00,North,354,13.0,19.0,14,0.00,,,0.00,,2013-07-20 02:01:00,
2013-07-19 20:11:00,84.0,30.0,-100.00,North,354,13.0,19.0,14,0.00,,,0.00,,2013-07-20 02:11:00,
2013-07-19 20:43:00,81.0,31.0,-100.00,North,349,11.0,17.0,16,0.00,,,0.00,,2013-07-20 02:43:00,
2013-07-19 20:52:00,81.0,31.0,-100.00,North,349,11.0,17.0,16,0.00,,,0.00,,2013-07-20 02:52:00,
2013-07-19 21:02:00,81.0,31.0,-100.00,North,349,11.0,17.0,16,0.00,,,0.00,,2013-07-20 03:02:00,
2013-07-19 21:11:00,81.0,31.0,-100.00,North,349,11.0,17.0,16,0.00,,,0.00,,2013-07-20 03:11:00,
2013-07-19 21:44:00,73.0,34.0,-100.00,NNE,19,6.0,12.0,24,0.00,,,0.00,,2013-07-20 03:44:00,
2013-07-19 21:53:00,73.0,34.0,-100.00,NNE,19,6.0,12.0,24,0.00,,,0.00,,2013-07-20 03:53:00,
2013-07-19 22:01:00,73.0,34.0,-100.00,NNE,19,6.0,12.0,24,0.00,,,0.00,,2013-07-20 04:01:00,
2013-07-19 22:11:00,73.0,34.0,-100.00,NNE,19,6.0,12.0,24,0.00,,,0.00,,2013-07-20 04:11:00,
2013-07-19 22:44:00,69.0,33.0,-100.00,North,350,5.0,7.0,26,0.00,,,0.00,,2013-07-20 04:44:00,
2013-07-19 22:52:00,69.0,33.0,-100.00,North,350,5.0,7.0,26,0.00,,,0.00,,2013-07-20 04:52:00,
2013-07-19 23:02:00,69.0,33.0,-100.00,North,350,5.0,7.0,26,0.00,,,0.00,,2013-07-20 05:02:00,
2013-07-19 23:11:00,69.0,33.0,-100.00,North,350,5.0,7.0,26,0.00,,,0.00,,2013-07-20 05:11:00,
2013-07-19 23:52:00,64.0,34.0,-100.00,NW,308,2.0,4.0,33,0.00,,,0.00,,2013-07-20 05:52:00,